Falfurrias, TX

5:48 PM CST on November 18, 2019 (GMT -0600)
Falfurrias

Weather History for KBKS - August, 2019

Change the Weather History Date:

Wednesday, August 28, 2019

  Actual Average (WUND) Record (WUND)
Temperature  
Mean Temperature 92 °F -  
Max Temperature 102 °F - - (-1)
Min Temperature 81 °F - - (-1)
Cooling Degree Days 26    
Growing Degree Days 42 (Base 50)    
Moisture  
Dew Point 76 °F    
Average Humidity 71    
Maximum Humidity 91    
Minimum Humidity 33    
Precipitation  
Precipitation 0.33 in - - ()
Sea Level Pressure  
Sea Level Pressure 29.96 in    
Wind  
Wind Speed 5 mph ()    
Max Wind Speed 21 mph    
Max Gust Speed 33 mph    
Visibility 9.1 miles    
Events      
Averages and records for this station are not official NWS values.
T = Trace of Precipitation, MM = Missing Value Source: Averaged Metar Reports

Daily Weather History Graph

Daily Weather History Graph

Search for Another Location

Airport or City:

Astronomy

Aug. 28, 2019 Rise Set
Actual Time 7:09 AM CDT 7:57 PM CDT
Civil Twilight 6:45 AM CDT 8:21 PM CDT
Nautical Twilight 6:17 AM CDT 8:49 PM CDT
Astronomical Twilight 5:49 AM CDT 9:17 PM CDT
Moon 5:00 AM CDT (8/28) 6:56 PM CDT (8/28)
Length of Visible Light 13h 35m
Length of Day
12h 47m
Waning Crescent, 4% of the Moon is Illuminated
Aug 28
Waning Crescent
Aug 30
New
Sep 5
First Quarter
Sep 13
Full
Sep 21
Last Quarter

Hourly Weather History & Observations

Time (CDT) Temp. Heat Index Dew Point Humidity Pressure Visibility Wind Dir Wind Speed Gust Speed Precip Events Conditions
12:15 AM 82.9 °F 92.1 °F 77.4 °F 83% 29.93 in 10.0 mi SE 3.5 mph - N/A   Clear
12:55 AM 83.5 °F 94.0 °F 78.1 °F 84% 29.91 in 10.0 mi SSE 6.9 mph - N/A   Clear
1:35 AM 83.3 °F 93.5 °F 78.1 °F 84% 29.92 in 10.0 mi SE 4.6 mph - N/A   Clear
1:55 AM 82.9 °F 92.8 °F 78.1 °F 85% 29.93 in 10.0 mi East 3.5 mph - N/A   Clear
2:15 AM 82.4 °F 91.5 °F 77.9 °F 86% 29.93 in 10.0 mi Calm Calm - N/A   Clear
2:35 AM 81.9 °F 90.2 °F 77.5 °F 87% 29.92 in 10.0 mi Calm Calm - N/A   Clear
2:55 AM 81.5 °F 89.2 °F 77.4 °F 87% 29.92 in 7.0 mi Calm Calm - N/A   Clear
3:15 AM 81.5 °F 89.5 °F 77.5 °F 88% 29.93 in 7.0 mi NE 3.5 mph - N/A   Scattered Clouds
3:35 AM 81.7 °F 89.7 °F 77.5 °F 87% 29.94 in 10.0 mi NE 3.5 mph - N/A   Overcast
3:50 AM 81.7 °F 89.7 °F 77.5 °F 87% 29.94 in 10.0 mi ENE 3.5 mph - N/A   Scattered Clouds
4:15 AM 81.9 °F 90.5 °F 77.9 °F 88% 29.95 in 10.0 mi Calm Calm - N/A   Clear
4:35 AM 81.9 °F 90.5 °F 77.9 °F 88% 29.95 in 10.0 mi Calm Calm - N/A   Clear
4:55 AM 81.7 °F 90.0 °F 77.7 °F 88% 29.95 in 10.0 mi ENE 3.5 mph - N/A   Clear
5:15 AM 81.9 °F 90.5 °F 77.9 °F 88% 29.95 in 10.0 mi NE 3.5 mph - N/A   Clear
5:35 AM 81.5 °F 89.7 °F 77.9 °F 89% 29.95 in 7.0 mi ENE 3.5 mph - N/A   Clear
5:55 AM 81.7 °F 90.2 °F 78.1 °F 89% 29.95 in 7.0 mi ENE 3.5 mph - N/A   Clear
6:15 AM 81.9 °F 90.8 °F 78.4 °F 89% 29.95 in 7.0 mi East 3.5 mph - N/A   Clear
6:35 AM 81.5 °F 90.0 °F 78.3 °F 90% 29.95 in 7.0 mi East 3.5 mph - N/A   Clear
7:15 AM 81.0 °F 88.4 °F 77.9 °F 90% 29.96 in 5.0 mi ENE 4.6 mph - N/A   Clear
7:35 AM 81.1 °F 89.1 °F 78.3 °F 91% 29.96 in 5.0 mi ENE 3.5 mph - N/A   Clear
7:55 AM 82.0 °F 91.6 °F 78.8 °F 90% 29.97 in 5.0 mi ENE 3.5 mph - N/A   Clear
8:15 AM 83.7 °F 95.7 °F 79.5 °F 87% 29.98 in 7.0 mi East 4.6 mph - N/A   Clear
8:35 AM 85.3 °F 99.1 °F 79.7 °F 83% 29.98 in 7.0 mi East 6.9 mph - N/A   Clear
8:55 AM 86.5 °F 101.5 °F 79.7 °F 80% 29.99 in 7.0 mi ESE 5.8 mph - N/A   Clear
9:15 AM 88.0 °F 103.7 °F 79.5 °F 76% 29.99 in 7.0 mi ESE 8.1 mph - N/A   Clear
9:35 AM 88.3 °F 102.9 °F 78.6 °F 73% 30.00 in 10.0 mi ESE 6.9 mph - N/A   Scattered Clouds
9:55 AM 89.1 °F 103.2 °F 78.1 °F 70% 30.00 in 10.0 mi SE 6.9 mph - N/A   Mostly Cloudy
10:15 AM 90.3 °F 105.5 °F 78.6 °F 68% 30.00 in 10.0 mi ESE 5.8 mph - N/A   Scattered Clouds
10:35 AM 91.2 °F 105.3 °F 77.4 °F 64% 30.00 in 10.0 mi ESE 9.2 mph - N/A   Scattered Clouds
10:55 AM 92.8 °F 106.2 °F 76.5 °F 59% 30.00 in 10.0 mi ESE 9.2 mph - N/A   Clear
11:15 AM 93.4 °F 106.2 °F 76.3 °F 57% 30.00 in 10.0 mi SE 10.4 mph - N/A   Scattered Clouds
11:35 AM 94.3 °F 106.3 °F 75.4 °F 54% 30.00 in 10.0 mi SE 10.4 mph 16.1 mph N/A   Clear
11:55 AM 94.3 °F 105.6 °F 74.8 °F 53% 30.00 in 10.0 mi SSE 6.9 mph - N/A   Clear
12:15 PM 94.5 °F 105.3 °F 74.5 °F 52% 29.99 in 10.0 mi ESE 8.1 mph - N/A   Clear
12:35 PM 95.7 °F 105.5 °F 73.4 °F 48% 29.99 in 10.0 mi SE 9.2 mph - N/A   Clear
12:55 PM 97.9 °F 108.3 °F 73.0 °F 45% 29.99 in 10.0 mi SSE 6.9 mph - N/A   Scattered Clouds
1:15 PM 99.1 °F 108.9 °F 72.5 °F 42% 29.98 in 10.0 mi SE 8.1 mph - N/A   Clear
1:35 PM 99.0 °F 107.7 °F 71.8 °F 41% 29.98 in 10.0 mi SE 4.6 mph 9.2 mph N/A   Scattered Clouds
1:55 PM 100.0 °F 107.0 °F 69.8 °F 37% 29.96 in 10.0 mi East 8.1 mph - N/A   Scattered Clouds
2:15 PM 100.9 °F 108.2 °F 69.3 °F 36% 29.96 in 10.0 mi ENE 4.6 mph - N/A   Scattered Clouds
2:35 PM 102.0 °F 108.8 °F 68.9 °F 34% 29.95 in 10.0 mi SE 9.2 mph - N/A   Scattered Clouds
2:55 PM 101.3 °F 106.7 °F 67.3 °F 33% 29.95 in 10.0 mi East 5.8 mph - N/A   Scattered Clouds
3:15 PM 101.3 °F 106.7 °F 67.5 °F 33% 29.93 in 10.0 mi SSE 3.5 mph - N/A   Scattered Clouds
3:35 PM 97.2 °F 108.2 °F 73.6 °F 47% 29.93 in 10.0 mi East 12.7 mph 19.6 mph N/A   Mostly Cloudy
3:55 PM 98.1 °F 112.1 °F 75.9 °F 49% 29.93 in 10.0 mi East 20.7 mph 26.5 mph N/A   Mostly Cloudy
4:15 PM 85.5 °F 90.1 °F 70.3 °F 60% 29.92 in 5.0 mi ESE 19.6 mph 33.4 mph 0.01 in   Mostly Cloudy
4:35 PM 85.3 °F 90.8 °F 71.4 °F 63% 29.95 in 0.5 mi SSE 10.4 mph 29.9 mph 0.32 in   Overcast
4:55 PM 82.9 °F 90.5 °F 75.4 °F 78% 29.95 in 10.0 mi SSE 9.2 mph - 0.33 in   Overcast
5:15 PM 82.8 °F 91.3 °F 76.8 °F 82% 29.95 in 10.0 mi SSE 11.5 mph 16.1 mph N/A   Scattered Clouds
5:35 PM 81.9 °F 87.0 °F 72.9 °F 74% 29.95 in 10.0 mi South 6.9 mph - N/A   Clear
5:55 PM 83.1 °F 90.4 °F 75.0 °F 76% 29.93 in 10.0 mi SE 8.1 mph - N/A   Clear
6:15 PM 84.4 °F 94.6 °F 77.2 °F 79% 29.93 in 10.0 mi ESE 4.6 mph - N/A   Clear
6:35 PM 86.7 °F 99.3 °F 77.9 °F 75% 29.93 in 10.0 mi ESE 9.2 mph - N/A   Clear
6:55 PM 88.2 °F 99.0 °F 76.1 °F 67% 29.93 in 10.0 mi ESE 9.2 mph - N/A   Clear
7:15 PM 88.0 °F 99.6 °F 76.6 °F 69% 29.94 in 10.0 mi ESE 5.8 mph - N/A   Clear
7:35 PM 87.8 °F 99.1 °F 76.5 °F 69% 29.93 in 10.0 mi ESE 8.1 mph - N/A   Clear
7:55 PM 87.3 °F 97.7 °F 75.9 °F 69% 29.93 in 10.0 mi ESE 9.2 mph - N/A   Clear
8:15 PM 86.4 °F 96.4 °F 76.1 °F 71% 29.94 in 10.0 mi ESE 4.6 mph - N/A   Clear
8:35 PM 86.2 °F 95.5 °F 75.4 °F 70% 29.94 in 10.0 mi ESE 6.9 mph - N/A   Clear
8:55 PM 85.6 °F 94.6 °F 75.4 °F 71% 29.94 in 10.0 mi SE 6.9 mph - N/A   Clear
9:15 PM 85.3 °F 94.2 °F 75.4 °F 72% 29.95 in 10.0 mi SE 5.8 mph - N/A   Clear
9:35 PM 84.7 °F 93.2 °F 75.2 °F 73% 29.95 in 10.0 mi ESE 4.6 mph - N/A   Clear
9:55 PM 84.2 °F 92.3 °F 75.2 °F 74% 29.96 in 10.0 mi Calm Calm - N/A   Clear
10:15 PM 83.8 °F 92.1 °F 75.4 °F 76% 29.97 in 10.0 mi East 3.5 mph - N/A   Clear
10:35 PM 83.5 °F 91.6 °F 75.6 °F 77% 29.97 in 10.0 mi SE 3.5 mph - N/A   Clear
10:55 PM 83.5 °F 91.9 °F 75.9 °F 78% 29.98 in 10.0 mi SE 3.5 mph - N/A   Clear
11:15 PM 83.1 °F 91.3 °F 76.1 °F 79% 29.98 in 10.0 mi ESE 3.5 mph - N/A   Clear
11:35 PM 82.8 °F 91.0 °F 76.3 °F 81% 29.98 in 10.0 mi ESE 3.5 mph - N/A   Clear
11:55 PM 82.6 °F 90.5 °F 76.3 °F 81% 29.99 in 10.0 mi ESE 3.5 mph - N/A   Clear